Time,TemperatureF,DewpointF,PressureIn,WindDirection,WindDirectionDegrees,WindSpeedMPH,WindSpeedGustMPH,Humidity,HourlyPrecipIn,Conditions,Clouds,dailyrainin,SoftwareType,DateUTC
2013-09-18 00:00:00,60.2,51.1,30.26,South,171,0.0,4.0,72,0.00,SCT,,0.00,WeatherDisplay:10.37,2013-09-18 04:00:00,
2013-09-18 00:15:00,59.8,50.8,30.26,SSW,212,0.0,2.0,72,0.00,SCT,,0.00,WeatherDisplay:10.37,2013-09-18 04:15:00,
2013-09-18 00:30:00,59.4,50.7,30.26,SSW,212,0.0,1.0,73,0.00,SCT,,0.00,WeatherDisplay:10.37,2013-09-18 04:30:00,
2013-09-18 00:45:00,58.9,50.6,30.26,SSW,212,0.0,0.0,74,0.00,SCT,,0.00,WeatherDisplay:10.37,2013-09-18 04:45:00,
2013-09-18 01:00:00,58.4,50.5,30.26,SSW,212,0.0,0.0,75,0.00,SCT,,0.00,WeatherDisplay:10.37,2013-09-18 05:00:00,
2013-09-18 01:15:00,58.0,50.1,30.25,SSW,212,0.0,1.0,75,0.00,SCT,,0.00,WeatherDisplay:10.37,2013-09-18 05:15:00,
2013-09-18 01:30:00,57.6,50.1,30.25,SSW,212,0.0,1.0,76,0.00,SCT,,0.00,WeatherDisplay:10.37,2013-09-18 05:30:00,
2013-09-18 01:45:00,57.2,50.1,30.25,SSW,212,0.0,0.0,77,0.00,SCT,,0.00,WeatherDisplay:10.37,2013-09-18 05:45:00,
2013-09-18 02:00:00,56.7,49.9,30.25,SSW,212,0.0,0.0,78,0.00,SCT,,0.00,WeatherDisplay:10.37,2013-09-18 06:00:00,
2013-09-18 02:15:00,56.3,49.9,30.25,SSW,212,0.0,0.0,79,0.00,SCT,,0.00,WeatherDisplay:10.37,2013-09-18 06:15:00,
2013-09-18 02:30:00,55.9,50.2,30.24,SSW,212,0.0,0.0,81,0.00,SCT,,0.00,WeatherDisplay:10.37,2013-09-18 06:30:00,
2013-09-18 02:45:00,55.7,50.3,30.24,SSW,212,0.0,0.0,82,0.00,SCT,,0.00,WeatherDisplay:10.37,2013-09-18 06:45:00,
2013-09-18 03:00:00,55.1,50.0,30.24,SSW,212,0.0,0.0,83,0.00,SCT,,0.00,WeatherDisplay:10.37,2013-09-18 07:00:00,
2013-09-18 03:15:00,54.7,50.0,30.24,SSW,212,0.0,0.0,84,0.00,SCT,,0.00,WeatherDisplay:10.37,2013-09-18 07:15:00,
2013-09-18 03:30:00,54.2,50.1,30.24,SSW,212,0.0,0.0,86,0.00,SCT,,0.00,WeatherDisplay:10.37,2013-09-18 07:30:00,
2013-09-18 03:45:00,54.2,50.1,30.24,SSW,212,0.0,0.0,86,0.00,SCT,,0.00,WeatherDisplay:10.37,2013-09-18 07:45:00,
2013-09-18 04:00:00,54.7,50.3,30.24,SSW,212,0.0,1.0,85,0.00,SCT,,0.00,WeatherDisplay:10.37,2013-09-18 08:00:00,
2013-09-18 04:15:00,54.4,50.0,30.24,SSW,212,0.0,0.0,85,0.00,SCT,,0.00,WeatherDisplay:10.37,2013-09-18 08:15:00,
2013-09-18 04:30:00,53.8,50.0,30.24,SSW,212,0.0,0.0,87,0.00,SCT,,0.00,WeatherDisplay:10.37,2013-09-18 08:30:00,
2013-09-18 04:45:00,53.6,50.1,30.24,SSW,212,0.0,0.0,88,0.00,SCT,,0.00,WeatherDisplay:10.37,2013-09-18 08:45:00,
2013-09-18 05:00:00,54.1,50.6,30.23,SSW,212,0.0,0.0,88,0.00,SCT,,0.00,WeatherDisplay:10.37,2013-09-18 09:00:00,
2013-09-18 05:15:00,54.5,50.7,30.24,SSW,212,0.0,0.0,87,0.00,SCT,,0.00,WeatherDisplay:10.37,2013-09-18 09:15:00,
2013-09-18 05:30:00,54.8,50.7,30.24,SSW,212,0.0,0.0,86,0.00,SCT,,0.00,WeatherDisplay:10.37,2013-09-18 09:30:00,
2013-09-18 05:45:00,55.0,50.9,30.25,SSW,212,0.0,0.0,86,0.00,SCT,,0.00,WeatherDisplay:10.37,2013-09-18 09:45:00,
2013-09-18 06:00:00,55.1,50.7,30.25,SSW,212,0.0,0.0,85,0.00,SCT,,0.00,WeatherDisplay:10.37,2013-09-18 10:00:00,
2013-09-18 06:15:00,55.1,50.7,30.25,SSW,212,0.0,0.0,85,0.00,SCT,,0.00,WeatherDisplay:10.37,2013-09-18 10:15:00,
2013-09-18 06:30:00,55.3,50.9,30.25,SSW,212,0.0,0.0,85,0.00,SCT,,0.00,WeatherDisplay:10.37,2013-09-18 10:30:00,
2013-09-18 06:45:00,55.1,50.4,30.25,SSW,212,0.0,0.0,84,0.00,SCT,,0.00,WeatherDisplay:10.37,2013-09-18 10:45:00,
2013-09-18 07:00:00,55.4,50.9,30.26,SSW,212,0.0,0.0,85,0.00,SCT,,0.00,WeatherDisplay:10.37,2013-09-18 11:00:00,
2013-09-18 07:15:00,55.4,50.6,30.27,SSW,212,0.0,0.0,84,0.00,SCT,,0.00,WeatherDisplay:10.37,2013-09-18 11:15:00,
2013-09-18 07:30:00,55.7,50.9,30.27,SSW,212,0.0,1.0,84,0.00,SCT,,0.00,WeatherDisplay:10.37,2013-09-18 11:30:00,
2013-09-18 07:45:00,55.7,50.9,30.27,SSW,212,0.0,0.0,84,0.00,SCT,,0.00,WeatherDisplay:10.37,2013-09-18 11:45:00,
2013-09-18 08:00:00,55.9,51.1,30.27,SSW,212,0.0,0.0,84,0.00,SCT,,0.00,WeatherDisplay:10.37,2013-09-18 12:00:00,
2013-09-18 08:15:00,56.2,51.4,30.27,SSW,212,0.0,0.0,84,0.00,SCT,,0.00,WeatherDisplay:10.37,2013-09-18 12:15:00,
2013-09-18 08:30:00,56.2,51.2,30.27,SSW,212,0.0,0.0,83,0.00,SCT,,0.00,WeatherDisplay:10.37,2013-09-18 12:30:00,
2013-09-18 08:45:00,56.6,51.2,30.28,SSW,212,0.0,0.0,82,0.00,SCT,,0.00,WeatherDisplay:10.37,2013-09-18 12:45:00,
2013-09-18 09:00:00,57.0,51.6,30.28,SSW,212,0.0,1.0,82,0.00,SCT,,0.00,WeatherDisplay:10.37,2013-09-18 13:00:00,
2013-09-18 09:15:00,57.5,51.4,30.28,SSW,212,0.0,0.0,80,0.00,SCT,,0.00,WeatherDisplay:10.37,2013-09-18 13:15:00,
2013-09-18 09:30:00,57.8,51.3,30.28,SSW,212,0.0,1.0,79,0.00,SCT,,0.00,WeatherDisplay:10.37,2013-09-18 13:30:00,
2013-09-18 09:45:00,58.6,51.4,30.29,SSW,212,0.0,0.0,77,0.00,SCT,,0.00,WeatherDisplay:10.37,2013-09-18 13:45:00,
2013-09-18 10:00:00,58.7,50.4,30.29,SSW,212,0.0,1.0,74,0.00,SCT,,0.00,WeatherDisplay:10.37,2013-09-18 14:00:00,
2013-09-18 10:15:00,59.5,49.7,30.28,SSW,212,0.0,2.0,70,0.00,SCT,,0.00,WeatherDisplay:10.37,2013-09-18 14:15:00,
2013-09-18 10:30:00,59.9,50.4,30.28,SSW,212,0.0,1.0,71,0.00,SCT,,0.00,WeatherDisplay:10.37,2013-09-18 14:30:00,
2013-09-18 10:45:00,61.3,49.4,30.28,SSW,212,0.0,1.0,65,0.00,SCT,,0.00,WeatherDisplay:10.37,2013-09-18 14:45:00,
2013-09-18 11:00:00,61.7,49.4,30.27,SSW,213,0.0,4.0,64,0.00,SCT,,0.00,WeatherDisplay:10.37,2013-09-18 15:00:00,
2013-09-18 11:15:00,62.8,49.5,30.26,West,276,0.0,3.0,62,0.00,SCT,,0.00,WeatherDisplay:10.37,2013-09-18 15:15:00,
2013-09-18 11:30:00,62.6,49.0,30.26,WSW,256,0.0,2.0,61,0.00,SCT,,0.00,WeatherDisplay:10.37,2013-09-18 15:30:00,
2013-09-18 11:45:00,63.7,49.5,30.26,SSE,155,0.0,1.0,60,0.00,SCT,,0.00,WeatherDisplay:10.37,2013-09-18 15:45:00,
2013-09-18 12:15:00,66.1,50.4,30.25,SSE,166,0.0,2.0,57,0.00,SCT,,0.00,WeatherDisplay:10.37,2013-09-18 16:15:00,
2013-09-18 12:30:00,66.1,50.9,30.24,SSW,207,0.0,3.0,58,0.00,SCT,,0.00,WeatherDisplay:10.37,2013-09-18 16:30:00,
2013-09-18 12:45:00,66.5,50.8,30.24,South,183,0.0,2.0,57,0.00,SCT,,0.00,WeatherDisplay:10.37,2013-09-18 16:45:00,
2013-09-18 13:00:00,66.4,50.7,30.23,South,175,0.0,2.0,57,0.00,SCT,,0.00,WeatherDisplay:10.37,2013-09-18 17:00:00,
2013-09-18 13:15:00,66.9,51.1,30.23,South,175,0.0,2.0,57,0.00,SCT,,0.00,WeatherDisplay:10.37,2013-09-18 17:15:00,
2013-09-18 13:30:00,68.4,51.6,30.23,WSW,250,0.0,3.0,55,0.00,SCT,,0.00,WeatherDisplay:10.37,2013-09-18 17:30:00,
2013-09-18 13:45:00,68.1,51.3,30.22,West,280,0.0,2.0,55,0.00,SCT,,0.00,WeatherDisplay:10.37,2013-09-18 17:45:00,
2013-09-18 14:00:00,68.0,52.1,30.21,SSE,164,0.0,2.0,57,0.00,SCT,,0.00,WeatherDisplay:10.37,2013-09-18 18:00:00,
2013-09-18 14:15:00,68.7,52.4,30.21,SSE,159,0.0,2.0,56,0.00,SCT,,0.00,WeatherDisplay:10.37,2013-09-18 18:15:00,
2013-09-18 14:30:00,68.8,52.5,30.20,West,274,0.0,4.0,56,0.00,SCT,,0.00,WeatherDisplay:10.37,2013-09-18 18:30:00,
2013-09-18 14:45:00,70.0,53.1,30.20,WSW,255,1.0,3.0,55,0.00,SCT,,0.00,WeatherDisplay:10.37,2013-09-18 18:45:00,
2013-09-18 15:00:00,68.3,51.5,30.20,SW,217,0.0,1.0,55,0.00,SCT,,0.00,WeatherDisplay:10.37,2013-09-18 19:00:00,
2013-09-18 15:15:00,70.2,53.3,30.19,WSW,254,0.0,4.0,55,0.00,SCT,,0.00,WeatherDisplay:10.37,2013-09-18 19:15:00,
2013-09-18 15:30:00,70.1,52.2,30.18,SSW,210,0.0,2.0,53,0.00,SCT,,0.00,WeatherDisplay:10.37,2013-09-18 19:30:00,
2013-09-18 15:45:00,69.4,51.0,30.18,SW,231,0.0,2.0,52,0.00,SCT,,0.00,WeatherDisplay:10.37,2013-09-18 19:45:00,
2013-09-18 16:00:00,69.9,51.9,30.17,West,270,0.0,3.0,53,0.00,SCT,,0.00,WeatherDisplay:10.37,2013-09-18 20:00:00,
2013-09-18 16:15:00,71.3,52.8,30.17,WNW,283,0.0,3.0,52,0.00,SCT,,0.00,WeatherDisplay:10.37,2013-09-18 20:15:00,
2013-09-18 16:30:00,70.2,51.8,30.17,WNW,290,0.0,2.0,52,0.00,SCT,,0.00,WeatherDisplay:10.37,2013-09-18 20:30:00,
2013-09-18 16:45:00,69.6,51.7,30.17,WNW,290,0.0,1.0,53,0.00,SCT,,0.00,WeatherDisplay:10.37,2013-09-18 20:45:00,
2013-09-18 17:00:00,68.8,52.9,30.17,WNW,290,0.0,0.0,57,0.00,SCT,,0.00,WeatherDisplay:10.37,2013-09-18 21:00:00,
2013-09-18 17:15:00,67.4,54.8,30.16,WNW,290,0.0,0.0,64,0.00,SCT,,0.00,WeatherDisplay:10.37,2013-09-18 21:15:00,
2013-09-18 17:30:00,67.3,53.4,30.17,WNW,290,0.0,0.0,61,0.00,SCT,,0.00,WeatherDisplay:10.37,2013-09-18 21:30:00,
2013-09-18 17:45:00,68.4,53.0,30.16,WNW,290,0.0,0.0,58,0.00,SCT,,0.00,WeatherDisplay:10.37,2013-09-18 21:45:00,
2013-09-18 18:00:00,66.9,53.9,30.17,WNW,290,0.0,0.0,63,0.00,SCT,,0.00,WeatherDisplay:10.37,2013-09-18 22:00:00,
2013-09-18 18:15:00,65.6,54.3,30.17,WNW,290,0.0,0.0,67,0.00,SCT,,0.00,WeatherDisplay:10.37,2013-09-18 22:15:00,
2013-09-18 18:30:00,64.5,54.9,30.17,WNW,290,0.0,0.0,71,0.00,SCT,,0.00,WeatherDisplay:10.37,2013-09-18 22:30:00,
2013-09-18 18:45:00,63.7,54.9,30.17,WNW,290,0.0,0.0,73,0.00,SCT,,0.00,WeatherDisplay:10.37,2013-09-18 22:45:00,
2013-09-18 19:00:00,63.2,54.4,30.17,WNW,290,0.0,0.0,73,0.00,SCT,,0.00,WeatherDisplay:10.37,2013-09-18 23:00:00,
2013-09-18 19:15:00,62.7,55.0,30.17,WNW,290,0.0,0.0,76,0.00,SCT,,0.00,WeatherDisplay:10.37,2013-09-18 23:15:00,
2013-09-18 19:30:00,62.2,55.3,30.17,WNW,290,0.0,0.0,78,0.00,SCT,,0.00,WeatherDisplay:10.37,2013-09-18 23:30:00,
2013-09-18 20:00:00,60.9,55.4,30.17,WNW,290,0.0,0.0,82,0.00,SCT,,0.00,WeatherDisplay:10.37,2013-09-19 00:00:00,
2013-09-18 20:15:00,60.2,54.7,30.17,WNW,290,0.0,0.0,82,0.00,SCT,,0.00,WeatherDisplay:10.37,2013-09-19 00:15:00,
2013-09-18 20:30:00,60.1,54.6,30.17,WNW,290,0.0,0.0,82,0.00,SCT,,0.00,WeatherDisplay:10.37,2013-09-19 00:30:00,
2013-09-18 20:45:00,60.5,54.9,30.17,WNW,290,0.0,0.0,82,0.00,SCT,,0.00,WeatherDisplay:10.37,2013-09-19 00:45:00,
2013-09-18 21:00:00,60.5,54.3,30.17,WNW,290,0.0,0.0,80,0.00,SCT,,0.00,WeatherDisplay:10.37,2013-09-19 01:00:00,
2013-09-18 21:15:00,60.1,53.9,30.18,WNW,290,0.0,0.0,80,0.00,SCT,,0.00,WeatherDisplay:10.37,2013-09-19 01:15:00,
2013-09-18 21:30:00,59.8,54.0,30.18,WNW,290,0.0,0.0,81,0.00,SCT,,0.00,WeatherDisplay:10.37,2013-09-19 01:30:00,
2013-09-18 21:45:00,59.5,54.0,30.18,WNW,290,0.0,0.0,82,0.00,SCT,,0.00,WeatherDisplay:10.37,2013-09-19 01:45:00,
2013-09-18 22:00:00,59.3,54.1,30.18,WNW,290,0.0,0.0,83,0.00,SCT,,0.00,WeatherDisplay:10.37,2013-09-19 02:00:00,
2013-09-18 22:15:00,59.5,54.3,30.18,WNW,290,0.0,0.0,83,0.00,SCT,,0.00,WeatherDisplay:10.37,2013-09-19 02:15:00,
2013-09-18 22:30:00,59.6,54.1,30.17,WNW,290,0.0,0.0,82,0.00,SCT,,0.00,WeatherDisplay:10.37,2013-09-19 02:30:00,
2013-09-18 22:45:00,59.9,54.7,30.17,WNW,290,0.0,0.0,83,0.00,SCT,,0.00,WeatherDisplay:10.37,2013-09-19 02:45:00,
2013-09-18 23:00:00,59.6,54.8,30.17,WNW,290,0.0,0.0,84,0.00,SCT,,0.00,WeatherDisplay:10.37,2013-09-19 03:00:00,
2013-09-18 23:15:00,59.0,54.5,30.16,WNW,290,0.0,0.0,85,0.00,SCT,,0.00,WeatherDisplay:10.37,2013-09-19 03:15:00,
2013-09-18 23:30:00,58.6,54.1,30.17,WNW,290,0.0,0.0,85,0.00,SCT,,0.00,WeatherDisplay:10.37,2013-09-19 03:30:00,
2013-09-18 23:45:00,58.2,54.1,30.17,WNW,290,0.0,0.0,86,0.00,SCT,,0.00,WeatherDisplay:10.37,2013-09-19 03:45:00,